GFSGBSN_850_temp_075.txt.gz
Temp
4 4 5 5 4 4 4 4 5 6 5 6 7 9 11 11 12 12 12 12 12 12 12 12 12 12 12 12 15 19 18 18 18 19 19 18 18 19 18 20 21 20 22 23 22 22 23
3 3 4 5 5 4 4 4 5 5 5 4 5 5 7 9 11 11 12 12 12 12 12 12 11 11 10 9 18 17 17 18 18 18 18 18 18 20 21 21 20 22 22 22 21 22 22
3 3 3 3 4 4 4 5 5 5 4 4 4 3 4 6 8 11 11 12 12 12 12 12 10 9 9 14 18 18 17 17 17 17 18 19 20 19 21 19 22 21 19 19 19 20 20
3 4 4 3 3 3 4 4 5 5 5 5 4 3 3 3 6 9 11 12 12 12 12 12 10 8 9 17 17 17 18 17 17 18 18 19 19 20 21 21 20 19 19 17 19 18 20
3 4 4 4 4 4 3 5 5 5 5 5 5 3 3 2 3 8 10 12 12 12 12 10 10 9 10 15 16 18 17 17 18 18 18 19 20 20 20 17 16 17 17 18 20 19 19
2 2 4 4 4 4 4 4 4 5 5 5 5 4 3 3 3 4 9 11 13 12 11 9 8 8 12 17 17 18 18 18 18 18 19 19 19 16 15 15 15 17 18 21 20 19 18
1 2 3 4 4 4 4 4 5 5 5 5 5 5 4 3 3 4 6 11 11 11 9 11 12 13 16 17 17 18 18 18 18 18 16 18 15 15 15 17 19 19 20 19 21 23 20
1 1 3 3 3 4 4 4 5 5 4 4 4 4 4 4 4 3 4 7 10 8 8 10 12 12 13 16 14 17 18 18 17 16 17 17 16 17 19 19 20 21 20 19 20 21 20
0 0 2 3 3 3 3 4 4 3 4 3 2 2 3 3 4 5 5 7 8 9 8 10 12 12 14 14 14 16 17 18 17 16 17 16 18 19 19 19 20 21 20 19 20 21 21
-0 0 1 2 3 3 3 4 4 4 4 4 2 2 3 3 4 5 5 6 7 9 7 11 14 14 14 15 15 16 18 18 17 17 17 17 19 20 20 20 21 19 21 21 21 19 17
-0 -1 -0 2 2 2 3 3 3 4 4 3 3 2 2 2 4 5 6 7 9 9 6 15 17 18 17 16 18 17 19 17 17 18 17 18 18 19 19 21 21 20 21 22 21 18 18
-1 -1 -0 1 2 2 2 2 2 2 2 2 2 2 2 2 3 6 5 6 8 8 8 15 18 17 17 16 17 19 17 17 19 18 18 18 21 20 20 21 21 22 21 19 20 18 15
-1 -0 1 1 1 1 1 1 1 1 1 1 1 2 2 2 3 4 4 5 6 7 15 16 17 17 16 16 16 17 16 16 15 15 16 18 18 20 22 20 20 20 19 14 13 13 13
-1 -1 -1 -1 -0 -0 -0 0 1 1 1 2 2 2 2 2 3 3 3 5 6 10 11 16 16 16 16 17 16 16 16 15 16 16 16 16 16 19 21 20 19 18 17 13 14 13 16
-1 -1 -1 -0 0 0 0 1 1 1 2 2 2 1 1 2 3 3 3 4 6 8 13 13 14 14 15 17 16 16 15 16 17 17 16 16 17 21 22 21 20 19 17 18 16 16 14
-1 -1 -1 -0 0 0 1 1 1 1 1 1 1 1 1 3 3 2 2 4 6 9 11 12 10 12 13 15 15 15 15 17 17 18 19 18 17 20 21 21 20 20 20 17 17 14 14
-1 -1 -1 -0 0 1 1 1 1 1 1 1 1 1 1 3 2 2 3 4 6 8 10 10 10 11 12 12 12 13 16 17 17 18 19 19 17 18 20 19 19 18 18 19 18 15 13
-1 -1 -1 -0 0 0 1 1 1 1 1 1 1 1 2 3 2 2 2 5 6 7 8 9 10 11 11 11 12 10 14 16 19 18 18 17 17 15 17 20 21 20 18 18 14 16 15
-1 -1 -1 -0 -0 0 1 1 1 1 1 0 0 1 1 2 3 2 4 5 5 6 7 9 9 11 11 12 11 10 14 15 18 17 16 16 15 13 15 18 20 19 19 19 18 16 15
-1 -1 -1 -0 -0 0 0 0 0 0 0 0 -0 1 1 2 3 4 3 4 5 6 6 8 9 10 10 10 12 8 9 14 16 16 17 16 14 14 14 16 19 18 19 19 17 13 15
-1 -1 -1 -0 -0 -0 0 0 0 0 0 0 -0 1 2 2 3 3 5 5 5 5 7 8 8 8 9 10 10 8 10 10 13 16 15 15 13 15 16 19 20 19 18 18 18 18 17
-1 -0 -0 -0 -0 -0 0 0 1 1 0 1 -0 1 3 4 4 3 4 4 5 6 8 8 7 8 10 9 10 9 9 9 10 14 14 14 13 15 15 17 19 19 19 18 19 19 19
-0 -0 0 0 0 0 1 1 1 1 1 1 1 2 3 4 4 3 4 5 6 7 8 9 9 8 8 9 10 9 9 7 8 10 13 15 13 14 13 16 17 14 16 19 19 19 18
-0 -0 0 0 0 1 1 1 1 1 1 1 1 1 3 3 4 4 5 5 6 7 7 9 10 9 10 11 10 9 9 8 8 8 11 12 13 11 10 12 13 17 19 19 18 20 20
-0 -0 0 0 0 0 0 1 0 1 1 1 1 1 2 2 4 5 5 6 6 7 7 8 10 11 12 12 9 7 6 7 8 9 11 13 12 10 11 12 15 17 18 18 18 17 20
-0 -0 -0 -0 0 0 0 0 0 0 1 1 1 1 2 3 4 6 6 6 6 5 6 8 9 10 11 9 8 7 6 8 10 11 12 13 11 9 9 11 11 15 17 20 20 14 20
-0 0 0 0 0 0 0 1 1 1 0 1 1 1 1 3 5 6 6 6 7 7 6 8 9 9 11 5 6 5 8 9 8 9 10 8 8 9 7 8 10 16 18 19 15 12 19
0 0 0 0 0 0 0 0 0 1 0 0 2 1 1 2 3 6 7 7 8 8 6 8 8 8 6 5 5 5 4 9 9 11 11 9 9 9 8 9 10 16 17 16 14 18 20
1 1 1 1 1 0 0 0 0 1 0 0 1 0 1 2 2 5 6 7 7 8 8 9 9 9 8 5 5 6 5 5 8 7 12 10 10 10 11 10 12 15 17 17 19 18 18

GFSGBSN_850_temp_078.txt.gz
Temp
3 3 3 4 4 4 5 5 5 5 5 5 4 6 7 8 10 11 11 12 12 12 12 12 12 12 13 11 16 19 19 18 18 18 18 18 18 18 17 18 18 18 18 21 21 21 22
2 3 3 3 3 4 4 5 5 5 5 5 4 4 5 6 9 10 11 12 12 12 12 11 11 11 10 7 18 18 18 17 17 17 18 18 18 19 18 18 17 20 19 20 20 21 21
2 2 2 2 2 3 3 4 5 5 5 5 5 5 4 4 6 9 11 11 12 12 12 11 10 9 8 14 18 18 17 16 17 16 17 18 19 17 18 17 20 20 17 17 18 20 19
3 3 3 4 4 4 3 5 5 5 5 5 5 5 5 4 6 8 9 11 12 12 11 11 10 8 9 17 17 19 17 16 17 17 17 18 18 18 17 19 19 17 17 16 18 18 19
1 2 3 4 4 4 4 5 5 5 5 5 5 5 5 5 6 7 8 10 12 11 12 10 9 8 10 15 17 18 17 17 17 17 17 18 17 17 18 16 14 15 14 16 17 19 18
1 1 1 2 4 4 5 5 5 5 5 5 5 5 5 5 5 6 8 10 12 12 11 9 7 7 13 16 16 16 17 17 17 17 17 18 18 15 14 13 13 14 15 17 17 18 17
1 1 1 1 2 3 4 4 5 5 5 5 5 5 5 5 6 6 8 10 10 9 8 9 9 10 14 15 15 17 17 17 16 17 14 17 14 14 13 14 16 16 16 16 17 19 18
0 1 1 1 1 1 3 4 4 5 5 5 5 4 4 5 6 6 5 5 5 4 4 8 9 9 11 13 11 17 17 16 16 14 15 15 15 16 16 16 16 16 16 17 18 21 19
0 0 0 0 -0 1 1 2 4 4 4 5 5 4 3 5 6 6 5 5 5 5 5 8 10 11 13 12 11 14 15 17 15 14 15 15 16 17 17 17 17 17 16 17 18 19 19
-0 -0 -0 -0 -0 -0 0 1 2 3 3 4 4 3 2 3 6 5 6 5 6 6 5 9 11 12 11 12 12 16 15 17 15 15 15 15 17 17 17 17 17 16 18 19 19 18 16
-0 -0 -0 -0 -0 -0 -0 0 1 2 3 2 2 2 2 1 4 5 5 6 7 7 6 13 13 15 13 14 16 15 16 16 15 16 15 15 16 16 16 17 18 17 19 20 20 18 17
-1 -1 -1 -1 -1 -0 -0 -0 0 1 2 1 1 1 2 2 4 5 5 6 7 7 6 12 16 14 13 14 16 17 15 16 17 16 16 16 18 17 18 18 18 19 20 18 17 16 14
-0 -1 -1 -1 -1 -1 -1 -0 1 1 0 1 1 1 1 1 4 4 3 5 6 6 12 14 15 14 15 13 14 16 15 14 13 14 14 16 17 17 18 17 18 18 16 13 14 12 13
-2 -1 -1 -1 -1 -1 -1 -0 -0 0 0 1 1 1 1 2 3 3 3 4 5 9 10 12 12 13 12 14 14 15 15 13 14 14 14 14 13 16 18 17 18 16 16 12 14 13 14
-2 -1 -1 -1 -1 -1 -1 -0 -0 0 0 1 1 1 1 2 3 2 2 3 6 8 10 11 11 12 12 12 10 12 13 14 15 15 14 13 15 18 19 19 19 17 15 16 14 15 13
-2 -1 -1 -1 -1 -1 -1 -1 0 0 1 1 1 1 1 3 2 1 2 4 5 8 9 9 8 10 10 10 10 10 9 15 15 15 15 15 14 18 19 19 18 18 18 15 14 13 14
-1 -1 -1 -1 -1 -1 -1 -0 0 1 1 1 1 1 1 3 1 1 1 4 5 6 7 8 8 8 9 9 11 9 9 10 12 16 15 16 14 15 18 17 17 17 17 17 16 13 12
-1 -1 -1 -1 -1 -1 -1 -0 0 1 1 1 1 1 1 3 1 2 2 4 6 6 6 7 7 8 8 9 9 10 10 12 11 10 14 16 14 14 15 18 19 19 18 17 13 15 13
-1 -1 -2 -1 -1 -1 -1 -0 0 0 0 1 1 0 1 1 2 2 3 4 4 5 6 6 7 8 9 9 8 10 10 10 9 10 13 14 14 12 15 16 17 17 17 18 16 14 14
-2 -1 -1 -1 -1 -1 -0 -0 -0 0 0 0 -0 1 1 1 2 4 3 3 4 5 4 5 6 7 6 7 9 8 9 10 9 9 10 12 13 15 14 15 16 16 18 19 18 14 15
-1 -1 -1 -1 -1 -0 -0 -0 -0 -0 0 1 -1 0 2 2 2 3 4 4 4 4 6 6 5 5 5 5 7 8 10 9 9 9 11 13 12 13 15 15 16 15 16 18 18 16 16
-1 -1 -1 -1 -1 -1 -1 -0 -0 -0 0 0 -1 1 1 2 3 2 4 4 4 4 5 5 5 6 6 5 7 7 10 9 8 7 9 11 11 12 12 14 15 14 16 18 17 16 16
-1 -1 -1 -1 -1 -1 -1 -0 -0 -0 -0 -0 0 1 2 3 2 3 3 4 4 5 6 6 7 7 6 7 8 9 10 10 8 7 6 8 11 10 10 13 14 11 13 17 17 17 16
-1 -1 -1 -0 -0 -0 -0 -0 -0 -0 -0 -0 0 1 1 2 3 3 4 4 4 5 4 7 7 6 7 8 9 9 9 8 8 8 6 6 7 9 8 11 10 12 15 18 17 17 17
-0 -0 -0 -0 0 0 -0 -0 -0 -0 0 -0 1 1 2 2 3 3 4 4 4 5 5 5 6 7 8 9 7 7 6 7 7 9 9 7 8 7 9 10 12 13 16 17 17 16 17
-1 -0 -1 -0 -0 0 0 0 0 0 0 -0 -0 1 1 2 2 4 3 4 4 4 4 5 6 7 7 6 6 5 4 8 8 8 10 9 8 8 7 10 9 13 15 16 17 13 17
-1 -1 -0 -0 -0 -0 0 0 0 0 -0 0 1 0 1 1 2 4 3 3 5 5 3 5 6 5 7 3 4 4 5 8 7 7 7 5 6 7 6 8 8 12 14 18 15 12 16
-1 -1 -1 -0 -0 -0 -0 0 0 0 -0 0 0 1 1 1 2 4 5 5 5 6 4 6 5 5 3 3 4 4 2 7 8 9 9 7 6 7 7 7 9 12 14 15 14 17 17
-0 -0 -0 0 0 0 0 0 0 0 0 -0 0 1 1 1 1 3 5 6 6 6 7 7 6 7 7 4 3 3 4 3 7 7 10 8 8 8 8 8 11 12 12 13 15 16 16

GFSGBSN_850_temp_081.txt.gz
Temp
3 3 3 3 3 3 4 4 4 4 4 5 5 5 5 5 7 9 11 11 12 12 12 12 12 12 13 12 16 19 18 17 17 17 18 18 18 17 16 16 17 16 18 19 20 20 19
2 2 2 2 3 3 3 4 4 4 4 4 5 5 6 5 7 8 10 11 11 11 11 11 11 11 10 7 18 17 17 18 17 17 17 17 18 18 17 17 17 18 18 18 19 19 19
2 2 3 3 3 3 2 2 3 4 4 5 5 5 5 6 6 8 9 10 10 11 11 11 11 10 8 14 17 17 16 16 16 16 17 17 17 17 17 16 18 18 17 15 17 19 18
2 2 2 2 2 3 4 4 4 4 4 4 5 6 6 6 7 7 8 9 10 11 11 11 11 9 8 16 16 18 17 17 16 16 17 17 16 16 16 18 17 16 16 15 17 18 19
1 1 1 1 2 2 3 4 4 4 4 5 5 5 6 6 7 7 8 10 11 12 12 11 9 9 9 14 15 16 16 16 16 16 16 16 16 16 16 15 13 14 14 15 16 17 18
1 1 1 1 1 1 3 4 4 4 4 5 5 5 6 7 6 7 8 10 10 10 10 10 6 7 13 15 15 15 15 16 16 16 16 16 16 14 12 12 12 13 14 15 16 16 16
1 1 1 1 1 1 1 3 4 4 4 5 5 5 5 6 7 7 8 10 8 8 7 8 8 9 12 13 14 15 15 15 15 16 13 15 13 13 14 13 15 15 15 14 15 17 17
-0 0 0 1 1 1 1 1 3 4 4 4 4 4 5 6 6 7 5 4 3 3 4 7 9 9 11 11 9 17 15 15 14 13 13 14 14 15 15 14 14 14 14 14 15 17 16
1 0 0 1 1 1 0 0 0 2 4 4 4 4 5 6 6 6 5 4 4 5 4 6 9 9 10 11 10 13 14 15 14 12 13 13 15 16 15 15 15 14 14 14 15 16 17
0 1 1 -0 0 1 0 -0 -0 0 3 3 3 3 4 5 5 6 5 4 5 6 4 8 9 10 10 11 10 13 13 15 14 14 13 13 16 15 15 15 15 14 15 16 16 15 15
-0 -0 0 0 -0 -0 0 -0 -0 -0 1 2 3 2 3 4 5 5 5 6 6 6 7 12 12 12 12 11 14 14 14 14 13 14 13 13 13 15 14 15 15 15 16 16 16 15 16
-1 -0 0 0 0 -0 -0 -0 -0 -1 -0 0 1 1 1 3 3 5 5 6 6 7 6 10 13 12 12 12 14 14 12 14 15 15 14 14 16 15 16 17 16 17 17 17 14 14 14
-1 -1 -0 -0 -0 -1 -1 -1 -1 -0 -0 0 0 1 1 2 3 4 3 6 6 5 10 12 11 12 12 13 13 14 12 12 12 13 13 14 15 16 17 16 16 16 15 12 13 12 13
-1 -1 -1 -1 -1 -1 -1 -1 -1 -1 -0 0 1 1 1 2 2 2 3 3 4 8 8 11 10 11 12 11 11 10 12 11 12 14 12 13 13 15 16 16 16 14 14 11 14 12 13
-1 -1 -1 -1 -1 -1 -1 -1 -1 -1 -0 0 0 0 0 2 1 1 2 2 5 7 9 8 9 10 10 10 10 10 9 11 12 13 13 12 13 16 17 17 17 15 13 16 14 13 11
-2 -1 -1 -1 -1 -1 -1 -1 -1 -1 -0 0 0 0 0 2 1 1 1 3 4 7 8 8 6 8 8 8 9 9 9 11 10 11 13 13 13 15 17 17 17 17 16 14 12 13 13
-2 -2 -1 -1 -1 -1 -1 -1 -1 -1 -0 0 -0 0 1 2 1 1 1 1 4 6 6 6 7 7 8 8 9 9 9 10 10 10 10 12 13 13 16 15 16 15 15 15 15 12 13
-2 -2 -2 -1 -1 -1 -1 -1 -1 -1 0 -0 -0 1 1 2 1 2 1 2 5 6 6 6 6 6 6 7 7 8 9 10 10 9 9 10 11 12 14 16 17 17 17 16 13 14 12
-2 -2 -2 -2 -1 -1 -1 -1 -1 -1 -0 -0 0 1 1 2 1 1 3 3 4 4 5 5 5 6 7 6 6 7 8 10 10 9 8 9 9 10 13 14 16 15 16 16 14 12 12
-2 -2 -2 -1 -1 -1 -1 -1 -1 -1 0 -1 -0 0 1 1 2 3 3 3 2 4 4 4 5 5 5 5 6 6 7 10 9 9 8 8 8 9 11 14 15 15 16 16 15 12 13
-2 -2 -2 -1 -1 -1 -2 -1 -1 -1 -0 -0 -0 -0 1 1 1 2 3 4 3 3 4 4 4 4 4 4 5 5 7 8 9 8 7 8 7 10 12 14 15 15 14 15 15 14 14
-2 -2 -1 -1 -1 -1 -1 -1 -0 -0 -0 -0 -0 -0 1 1 3 2 3 3 4 4 5 5 4 5 4 3 4 6 7 7 8 7 7 6 7 9 11 13 15 15 14 14 14 14 16
-2 -1 -1 -1 -1 -1 -1 -1 -1 -0 -1 -0 -0 -0 1 3 2 2 2 3 4 5 5 5 5 5 4 5 6 6 6 7 7 8 4 4 6 6 9 12 13 11 12 15 15 13 14
-2 -1 -1 -1 -1 -1 -1 -0 -1 -1 -1 -1 0 -0 0 2 2 3 4 3 4 4 4 6 5 4 6 6 7 6 6 6 7 7 7 5 4 5 7 9 10 12 13 14 15 15 15
-1 -1 -0 -1 -0 -1 -1 -1 -1 -1 -0 -1 -0 0 1 1 2 3 4 4 3 4 4 4 5 5 6 6 5 4 4 5 6 7 7 7 5 6 7 8 10 12 12 13 13 14 16
-1 -1 -1 -1 -0 -0 -0 -0 -0 -0 -0 -1 -0 0 1 1 2 3 3 4 3 3 3 4 5 5 5 5 4 4 3 6 7 8 8 6 7 6 6 8 8 10 13 15 16 12 15
-1 -1 -0 -1 -0 -0 -0 -0 -0 -0 -0 -0 -0 -0 1 1 2 3 3 3 4 4 3 4 4 4 5 3 3 4 4 7 6 6 6 6 5 6 7 8 8 10 12 14 10 10 15
-1 -1 -1 -1 -1 -1 -0 -0 -0 -0 -0 -0 -0 -0 0 0 1 2 4 4 4 4 3 5 4 4 2 2 3 3 1 5 6 8 7 6 6 6 6 7 8 11 12 13 11 15 14
-1 -1 -1 -1 -1 -1 -0 -0 -0 -0 -0 -0 0 -0 0 0 1 2 3 4 5 6 5 5 5 4 4 2 2 2 1 0 6 6 9 8 7 7 7 6 8 11 12 13 12 12 14

GFSGBSN_850_temp_084.txt.gz
Temp
2 2 3 3 3 3 3 3 3 3 4 4 4 5 6 6 7 9 10 10 11 11 11 11 11 12 12 12 15 18 17 17 17 17 17 17 17 17 15 15 16 15 16 18 19 18 18
2 2 2 2 2 2 2 2 2 3 3 4 4 5 6 7 7 8 9 9 9 10 10 11 10 10 9 8 16 16 17 17 17 16 17 17 17 18 17 16 15 17 17 17 18 18 17
1 2 1 1 2 2 2 2 3 3 4 4 5 6 6 6 7 8 8 9 9 9 10 11 10 9 7 14 16 16 15 16 16 15 16 16 16 17 16 16 17 17 15 14 15 17 18
2 1 1 1 1 1 1 1 2 3 4 5 5 5 6 6 7 7 8 9 9 10 11 11 10 8 8 15 15 17 16 15 15 15 15 16 16 15 16 17 16 16 14 14 16 16 17
1 2 1 1 1 1 1 1 1 2 4 4 5 5 6 6 7 7 8 9 9 10 11 10 9 8 10 14 14 14 15 15 15 16 15 15 15 15 15 13 13 12 13 14 15 16 17
1 1 1 2 1 1 1 1 1 1 2 4 4 5 5 6 6 7 7 8 8 8 8 8 5 6 12 14 14 14 14 14 14 15 15 14 14 12 10 11 11 12 13 13 13 16 15
1 1 1 1 1 1 1 1 1 1 1 3 4 5 6 6 6 6 7 8 8 6 6 6 7 7 11 12 13 13 14 14 14 14 12 13 12 11 12 12 13 14 14 14 13 15 16
-0 0 1 1 1 1 1 1 1 0 1 1 3 4 5 6 6 6 5 4 3 2 3 6 8 9 10 9 8 14 14 14 13 12 12 12 11 14 13 13 13 14 14 13 13 15 15
-1 -0 0 1 1 0 1 1 1 0 0 1 2 4 5 5 6 5 5 4 4 4 3 5 6 7 8 9 8 11 13 14 13 12 12 13 14 15 14 13 13 13 13 13 14 14 14
-0 -0 -0 0 1 1 0 1 1 0 -0 0 1 3 4 5 5 5 5 4 4 3 4 6 8 9 9 10 9 12 11 14 13 12 12 12 15 14 13 14 14 13 13 14 14 14 13
-1 -1 -1 -0 0 0 -0 -0 0 -0 0 -0 0 2 3 3 4 5 5 5 5 4 6 11 10 11 10 10 12 12 12 12 12 12 13 12 13 13 13 14 14 15 14 14 14 13 14
-1 -1 -1 -1 -0 0 -0 0 -0 -0 -0 -0 0 0 1 2 3 4 4 6 5 5 6 10 12 11 10 11 12 13 12 13 13 14 13 13 15 13 14 15 14 16 15 15 13 12 11
-1 -1 -1 -1 -0 -0 -0 -1 -0 -1 -1 -0 -0 0 0 1 3 3 3 5 5 4 9 10 10 10 11 11 12 11 11 11 11 11 12 14 14 15 16 14 13 14 13 12 12 11 12
-2 -2 -1 -1 -1 -1 -1 -1 -0 -0 -1 -1 -0 0 0 1 2 2 3 3 4 7 7 9 8 10 10 9 10 10 11 10 12 13 11 11 12 13 14 15 14 13 13 10 13 12 13
-2 -2 -2 -1 -1 -1 -0 -0 -1 -1 -1 -1 -0 -0 -0 2 1 1 2 -0 5 6 8 7 9 8 9 9 9 10 9 9 9 11 11 11 11 14 15 16 16 14 13 14 12 11 11
-3 -2 -2 -1 -1 -1 -1 -1 -1 -0 -1 -0 -1 -1 -0 1 1 1 1 2 3 6 6 7 7 7 7 7 8 9 8 10 9 10 10 11 11 14 15 15 15 15 14 13 10 12 12
-2 -2 -2 -2 -2 -1 -1 -1 -1 -1 -1 -0 -1 -0 1 1 1 0 1 0 4 6 6 5 6 6 6 6 7 8 9 9 9 9 10 9 10 11 14 14 14 14 14 14 13 11 12
-2 -2 -2 -2 -1 -1 -1 -1 -1 -1 -1 -1 -1 -0 1 1 0 1 1 2 4 4 5 5 5 5 5 5 6 7 7 9 9 9 8 8 7 8 12 15 15 15 15 15 14 12 10
-3 -2 -2 -2 -2 -2 -1 -1 -1 -1 -1 -1 -1 -0 0 1 1 1 2 3 3 3 4 5 5 5 5 5 5 5 6 8 9 8 7 9 8 8 10 13 14 13 14 15 13 11 12
-2 -2 -2 -2 -2 -2 -2 -1 -1 -1 -1 -2 -1 -0 -0 0 1 1 2 2 2 3 3 4 4 4 4 4 5 4 5 6 8 8 9 8 8 8 8 9 11 11 14 15 14 11 13
-3 -2 -2 -2 -2 -2 -2 -2 -1 -1 -1 -2 -1 -1 0 -1 1 1 2 3 2 3 3 3 3 3 3 3 4 4 5 6 7 8 7 7 6 7 8 8 8 10 12 14 14 14 13
-2 -2 -2 -2 -2 -2 -2 -1 -1 -1 -1 -2 -1 -1 0 1 2 1 2 2 3 3 3 3 3 4 3 3 4 5 5 5 6 6 6 5 5 6 7 9 9 10 12 13 13 12 12
-2 -2 -2 -2 -2 -1 -1 -1 -1 -1 -1 -2 -2 -1 -0 2 1 1 2 2 3 4 4 5 4 4 4 4 4 5 5 5 5 5 4 5 5 5 7 8 8 9 11 13 13 12 13
-2 -2 -2 -2 -2 -1 -1 -1 -1 -1 -1 -2 -1 -1 -0 1 1 2 3 3 3 4 4 5 5 4 4 5 5 6 5 4 4 4 5 4 5 4 6 7 9 11 13 14 13 14 12
-2 -2 -2 -2 -1 -1 -1 -1 -1 -1 -1 -2 -1 -0 -0 1 2 1 3 4 3 4 4 4 3 4 4 4 3 3 3 4 4 4 4 6 5 5 6 8 8 10 12 12 12 13 14
-1 -1 -1 -1 -1 -1 -1 -1 -1 -1 -1 -1 -1 -1 -0 1 1 3 2 4 3 2 2 2 3 4 4 2 2 3 3 5 6 6 6 6 6 6 6 7 7 10 10 11 13 11 12
-1 -1 -1 -1 -1 -1 -1 -1 -1 -1 -1 -1 -0 -1 -0 0 2 3 3 3 4 3 2 3 3 2 2 2 2 3 4 6 5 6 6 5 5 5 6 7 7 9 8 8 10 10 11
-1 -1 -1 -1 -1 -1 -1 -1 -1 -1 -1 -1 -1 -1 -0 -0 0 2 3 4 4 3 2 3 2 2 2 2 3 3 2 3 5 7 7 5 5 6 6 7 7 8 8 8 9 10 11
-1 -1 -1 -1 -1 -1 -0 -0 -0 -0 -1 -0 -1 -1 -0 -0 0 1 3 4 4 4 3 2 4 3 2 3 1 1 1 -0 4 4 6 6 6 6 6 7 9 9 8 10 9 9 11